User: anonymous   Login
Location: Unspecified
(0.0000°N, 0.0000°E)
Time: 03:08:55
(UTC+00:00)
Language:

OBJECT F - Orbit

View from above orbital plane
View from above orbital plane
View from above satellite
View from above satellite

Ground track
Ground track

The orbit data is extracted from the following two-line orbital elements,

1 43197U 18015F   18114.89985009  .00000759  00000-0  34522-4 0  9993
2 43197  97.3372 244.9595 0019107 351.2724 125.0751 15.23601993 12426
Epoch (UTC): 24 April 2018 21:35:47
Eccentricity: 0.0019107
inclination: 97.3372°
perigee height: 482 km
apogee height: 508 km
right ascension of ascending node: 244.9595°
argument of perigee: 351.2724°
revolutions per day: 15.23601993
mean anomaly at epoch: 125.0751°
orbit number at epoch: 1242

The dashed part of the orbit path shows where the satellite is in the earth's shadow,  

DLR